Airfield :
LOGIN :

Register | Disclaimer

   EN    FR    IT 

 










Legend :    VFR   Marginal VFR   IFR   Intensive IFR   Very Intensive IFR
Visi :
Ceiling :
>= 8 km
>= 3000ft
5 to 8 km
1000 to 3000 ft
1500m to 5 km
500 to 1000 ft
800 to 1500m
200 to 500 ft
< 800m
< 200 ft
Symbols :   Thunderstorms  Fog  Heavy snow  Heavy precipitations  Wind > 20 kt
SIGMETs :     Misc.  Thunderstorms  Icing  Turbulence  Mountain Waves  Volcanic Ashes







- Airport Elevation : 348 ft
- IATA code : LDV
- Download approach charts


LFRJ - Landivisiau

CURRENT METAR :
  • 221830Z AUTO 05010KT 020V080 CAVOK 14/06 Q1029

EXPIRED METARs :
  • 221800Z AUTO 04012KT 020V080 CAVOK 15/06 Q1029
  • 221730Z AUTO 04010KT 010V070 CAVOK 15/06 Q1029
  • 221700Z AUTO 04010KT 010V070 CAVOK 15/06 Q1029
  • 221630Z AUTO 04011KT 360V080 CAVOK 16/06 Q1030
  • 221600Z AUTO 03012KT CAVOK 17/05 Q1030

TAF TAF LFRJ
Valid from the 22 at 15:00 until the 23 at 00:00 UTC


221400Z 2215/2224 02012KT CAVOK
No reported NOTAMs for that airfield.



MET'MAP, your aeronautical weather chart ! - Copyright ORBIFLY December 2007 - Disclaimer

ORBIFLY MET'MAP TEAM :

Programming & Development : Alexandra Zaïnal
Concept & Development : Baudouin d'Aumeries
Co-Development & Prog : Marc-Olivier Méhu
Technical & hardware support : Manuel Goepfert

Contact : metmap@orbifly.com




SOURCES & CREDITS :

   NOAA